Regional Weather Roundup
Issued by NWS Midland/Odessa, TX

Skip options and go directly to product.
Home | Oldest Version | Previous Version | Current Version | All | Text Only | Save Text | Print | Product List | Glossary On

Skip product version selection by date and time.   
376
ASUS44 KMAF 022110
RWRMAF
MIDLAND AREA WEATHER ROUNDUP
NATIONAL WEATHER SERVICE MIDLAND TX
400 PM CDT MON MAY 02 2016

...IN SOUTHWEST TEXAS AND SOUTHEAST NEW MEXICO...

CITY           SKY/WX    TMP DP  RH WIND       PRES   REMARKS
ALPINE         SUNNY     62  37  39 NE3G16    30.24F
ANDREWS        FAIR      67  34  30 NE7       30.16F
ARTESIA        SUNNY     63  34  34 E7        30.18F
BIG SPRING     SUNNY     65  36  34 N7        30.16F
CARLSBAD       SUNNY     64  34  32 VRB5      30.16F
DRYDEN           N/A     73  42  32 NE8       30.11F
FORT STOCKTON  SUNNY     66  38  35 NW8       30.16F
GUAD PASS      SUNNY     59  32  36 E16G23    30.20F
HOBBS          SUNNY     64  32  29 NE7       30.18F
MARFA          SUNNY     63  38  39 VRB6      30.19F
MIDLAND AIRPK  SUNNY     69  34  27 N7        30.15F
MIDLAND INTL   SUNNY     69  36  29 VRB5      30.15F
ODESSA         SUNNY     69  35  28 NE8       30.15F
PECOS          SUNNY     68  36  31 N7        30.16F
PRESIDIO       FAIR      71  42  34 CALM      30.10F
SEMINOLE       SUNNY     66  33  29 N8        30.17F
SNYDER           N/A     65  39  38 N8G17     30.15F
WINK           SUNNY     68  36  30 E8        30.14F
$$
...OTHER STATIONS IN TEXAS...

CITY           SKY/WX    TMP DP  RH WIND       PRES   REMARKS
ABILENE        MOSUNNY   65  44  46 N12       30.14F
AMARILLO       SUNNY     61  35  37 N13       30.18F
AUSTIN         CLOUDY    65  52  62 N17       30.08F
BROWNSVILLE    CLOUDY    76  63  64 N16G24    29.95S
CORPUS CHRISTI CLOUDY    76  56  49 N17G26    29.98F
DALLAS FTW     CLOUDY    65  47  52 NW13      30.10F
DEL RIO          N/A     68  49  50 NW10      30.11F
EL PASO        MOSUNNY   67  32  27 VRB7      30.13F
HOUSTON INT    PTSUNNY   73  61  65 N17G23    29.99S
LUBBOCK        MOSUNNY   67  34  29 NW6       30.15F
SAN ANGELO     MOSUNNY   65  47  52 N9        30.14F
SAN ANTONIO    CLOUDY    63  51  65 N15G22    30.08F
WACO           CLOUDY    62  50  64 N13       30.10F
WICHITA FALLS  NOT AVBL
$$
...OTHER LOCATIONS IN NEW MEXICO...

CITY           SKY/WX    TMP DP  RH WIND       PRES   REMARKS
ALAMAGORDO     SUNNY     64  30  27 SW9       30.16F
ALBUQUERQUE    MOSUNNY   59  33  37 N6        30.21F
CANNON AFB     SUNNY     60  32  35 VRB7      30.17F
CLOVIS         SUNNY     59  34  38 S5        30.19F
HOLLOMAN AFB   SUNNY     65  32  28 VRB6      30.14F
ROSWELL        SUNNY     63  33  32 VRB5      30.18F
RUIDOSO          N/A     54  34  47 SE8       30.24F
SANTA FE       MOSUNNY   56  30  37 MISG      30.20F
TRUTH OR CONSE SUNNY     64  31  28 E8        30.15F
TUCUMCARI      SUNNY     60  33  36 CALM      30.16F
$$

USA.gov is the U.S. government's official web portal to all federal, state and local government web resources and services.